Location: Veytaux
(46.4185°N, 6.9320°E)
Time: 12:14:57
(UTC+00:00)

DEBRIS - Visible Passes

Search period start: 26 September 2022 00:00
Search period end: 06 October 2022 00:00
Orbit: 320 x 15053 km, 49.4° (Epoch: 25 September)

Date Brightness Start Highest point End Pass type
(mag) Time Alt. Az. Time Alt. Az. Time Alt. Az.
26 Sep 10.4 01:25:39 10° E 02:14:45 16° ENE 02:55:29 10° NE visible
27 Sep 9.3 04:10:38 10° S 05:55:47 63° ESE 07:16:19 10° ENE visible
28 Sep 9.4 03:15:07 10° SSE 04:53:01 52° E 06:13:41 10° NE visible
29 Sep 9.5 02:22:49 10° SE 03:53:31 40° E 05:09:50 10° NE visible
30 Sep 9.7 01:36:00 10° ESE 02:56:35 30° E 04:03:58 10° NE visible
01 Oct 10.1 00:59:30 10° E 02:01:45 20° ENE 02:53:57 10° NE visible
01 Oct 9.3 05:00:29 10° SSW 06:54:55 78° SE 08:12:04 10° ENE visible
02 Oct 10.5 00:49:18 10° ENE 01:08:43 11° ENE 01:26:47 10° NE visible
02 Oct 9.2 04:01:46 10° S 05:46:06 68° ESE 07:10:15 10° ENE visible
03 Oct 9.2 03:05:03 10° S 04:41:53 56° ESE 06:07:38 10° ENE visible
04 Oct 9.3 02:10:54 10° SSE 03:41:21 45° E 05:03:56 10° NE visible
05 Oct 9.5 01:20:48 10° SE 02:43:43 34° E 03:58:33 10° NE visible
